Regional Weather Roundup
Issued by NWS

Home | Current Version | Previous Version | Graphics & Text | Print | Product List | Glossary On
Versions: 1 2 3 4 5 6 7 8 9 10 11 12 13 14 15 16 17 18 19 20 21 22 23 24 25 26 27
000
ASUS45 KBOU 271107
RWRCO

WEATHER ROUNDUP FOR COLORADO
NATIONAL WEATHER SERVICE DENVER/BOULDER CO
500 AM MDT MON MAR 27 2017

NOTE: "FAIR" INDICATES FEW OR NO CLOUDS BELOW 12000 FEET WITH NO
SIGNIFICANT WEATHER AND/OR OBSTRUCTIONS TO VISIBILITY.

COZ001>005-013-030-031-271200-
...NORTHWEST COLORADO...

CITY           SKY/WX    TMP DP  RH WIND       PRES   REMARKS
CRAIG          CLOUDY    31  25  78 CALM      29.96F
HAYDEN         MOCLDY    30  23  74 E6        29.96S WCI  24
MEEKER         CLOUDY    34  26  72 SE6       29.95F WCI  29
MOUNT WERNER   NOT AVBL
STEAMBOAT SPGS CLOUDY    29  27  90 E3        29.97S
WALDEN         NOT AVBL
$$

COZ006>008-011-271200-
...WEST CENTRAL VALLEYS...

CITY           SKY/WX    TMP DP  RH WIND       PRES   REMARKS
GRAND JUNCTION CLOUDY    46  29  51 SE7       29.91F
MONTROSE       FAIR      38  29  70 SE13      29.97F
EAGLE          CLOUDY    30  24  78 CALM      30.01S
RIFLE          MOCLDY    35  28  75 CALM      29.96S
DELTA          CLOUDY    41  30  64 NE8       29.95F
NUCLA          FAIR      34  30  86 SE7       30.00S WCI  28
$$

COZ017>023-064>068-271200-
...SOUTHWEST COLORADO...

CITY           SKY/WX    TMP DP  RH WIND       PRES   REMARKS
DURANGO        FAIR      30  23  75 NE3       30.01S
CORTEZ         FAIR      27  25  92 NE3       29.99S
PAGOSA SPRINGS FAIR      31  30  96 CALM      30.04S
TELLURIDE      NOT AVBL
WOLF CREEK PAS FOG       21  21 100 S10       30.13S VSB 1/4 WCI  10
$$

COZ009-010-012-014-032>034-037-058>063-271200-
...CENTRAL COLORADO...

CITY           SKY/WX    TMP DP  RH WIND       PRES   REMARKS
ASPEN          FAIR      31  20  63 SW6       29.98F WCI  25
BUENA VISTA    FAIR      23  17  78 W5        30.00S WCI  17
COPPER MTN     FAIR      25  14  63 MISG      30.05S
BERTHOUD PASS  FAIR      16   5  62 NW28G37   30.00S WCI  -4
COTTONWOOD PAS FAIR      34  19  55 NW5       30.02S WCI  30
GUNNISON       FAIR      25  22  88 CALM      30.03F
KREMMLING      MOCLDY    27  23  86 CALM      30.01S
LEADVILLE      FAIR      25  14  63 N8        30.00F WCI  16
MONARCH PASS   FAIR      21  19  93 W24       30.15R FOG     WCI   4
SALIDA         FAIR      31  29  92 CALM      30.06F
SUNLIGHT       CLOUDY    25  21  86 SW10      30.07S WCI  15
WILKERSON PASS MOCLDY    23  19  86 W7        30.05F WCI  15
$$

COZ069>075-271200-
...SAN LUIS VALLEY/SANGRE DE CRISTO MOUNTAINS...

CITY           SKY/WX    TMP DP  RH WIND       PRES   REMARKS
ALAMOSA        FAIR      27  24  89 SW3       30.01S
LA VETA PASS   NOT AVBL
SAGUACHE       FAIR      32  23  69 NW13      30.02S WCI  22
$$

COZ035-036-038>040-271200-
...NORTHERN COLORADO FRONT RANGE...

CITY           SKY/WX    TMP DP  RH WIND       PRES   REMARKS
DENVER INTL AP FAIR      31  29  92 S7        29.92F WCI  24
DMNS CITY PARK   N/A     38  36  95 MISG      29.92F
AURORA         PTCLDY    33  33  99 S8        29.93F WCI  27
FRONT RANGE AP FAIR      34  32  93 S9        29.94S WCI  26
ERIE MUNI ARPT FAIR      32  32  99 CALM      29.93S
BOULDER MUN AP MOCLDY    39  39 100 CALM      29.93S
CENTENNIAL     FAIR      35  33  92 S6        29.93F WCI  30
BROOMFIELD     FAIR      37  36  93 W3        29.93S
FORT COLLINS   FAIR      36  34  92 CALM      29.94F
LONGMONT       FAIR      35  34  94 CALM      29.95F FOG
$$

COZ041-046-047-076>085-087-088-271200-
...PIKES PEAK/PALMER DIVIDE AND SOUTHERN FOOTHILLS...

CITY           SKY/WX    TMP DP  RH WIND       PRES   REMARKS
COLO. SPRINGS  FAIR      34  32  92 N6        29.96F WCI  29
A. F. ACADEMY  CLOUDY    36  35  99 N3        29.96R
SCHRIEVER AFB  FAIR      35  35 100 NE12      29.97S WCI  26
ELLICOTT         N/A    N/A N/A N/A SE3       29.95F
FALCON         FAIR      34  33  99 CALM      29.97S FOG
FORT CARSON    FAIR      35  35  99 NW3       29.95S
LIMON          FAIR      29  29 100 NW5       29.95F WCI  24
MONUMENT HILL  FAIR      32  30  93 S10       29.97S WCI  24
TRINIDAD       FAIR      36  32  85 W13       29.97S
$$

COZ042>045-048>051-090-091-271200-
...NORTHEAST COLORADO...

CITY           SKY/WX    TMP DP  RH WIND       PRES   REMARKS
GREELEY ARPT   FAIR      26  25  96 CALM      29.95S
AKRON          FAIR      34  31  88 SW12      29.94R WCI  25
BURLINGTON     FAIR      34  32  92 W9        29.94R WCI  27
WRAY           NOT AVBL
STERLING       FAIR      30  28  93 S5        29.93S WCI  25
HOLYOKE        FAIR      37  36  93 NW9       29.92S
FORT MORGAN    FAIR      32  30  95 W7        29.95R WCI  25
$$

COZ086-089-092>099-271200-
...SOUTHEAST COLORADO...

CITY           SKY/WX    TMP DP  RH WIND       PRES   REMARKS
PUEBLO         FAIR      32  29  88 CALM      29.94F
LA JUNTA       FAIR      35  32  88 SW5       29.95S WCI  31
LAMAR          FAIR      28  25  88 SW6       29.94S WCI  22
SPRINGFIELD      N/A     31  29  92 SW3       29.95S
$$




USA.gov is the U.S. government's official web portal to all federal, state and local government web resources and services.